JCSAT-12 (JCSAT-RA)

Last updated on Sun Jun 21 2026 00:03:04 GMT+0000 (Coordinated Universal Time)

1 35755U 09044A 26171.45486034 -.00000332 00000+0 00000+0 0 9990 2 35755 0.0120 356.2714 0000677 303.6782 264.5034 1.00269413 61644
UTC large
Height (km)
Speed (km/s)
/
Latitude / Longitude
Inclination (degrees)
Orbital Period (minutes)
Azimuth
Elevation
Range (km)
Doppler Factor

Next 0 passes for location: London (51.5072 / 0.1276)

No passes found over London.
JCSAT-12 (JCSAT-RA)